| time (UTC) | temp F | wind direction | speed knots | gust knots | rain 1hr in | rain 24hr in | rain mn in | humidity % | barometer mb |
| 20260508095517 | 46 | 225 | 0.9 | 2.6 | 0.00 | 0.00 | 0.00 | 74 | 1012.8 |
| 20260508095117 | 46 | 270 | 0.9 | 3.5 | 0.00 | 0.00 | 0.00 | 75 | 1012.6 |
| 20260508094537 | 46 | 248 | 0.9 | 3.5 | 0.00 | 0.00 | 0.00 | 75 | 1012.7 |
| 20260508094017 | 46 | 248 | 0.9 | 2.6 | 0.00 | 0.00 | 0.00 | 75 | 1012.7 |
| 20260508093517 | 46 | 0.0 | 1.7 | 0.00 | 0.00 | 0.00 | 75 | 1012.6 | |
| 20260508093017 | 46 | 248 | 0.9 | 2.6 | 0.00 | 0.00 | 0.00 | 75 | 1012.9 |
| 20260508092617 | 46 | 248 | 1.7 | 4.3 | 0.00 | 0.00 | 0.00 | 74 | 1012.9 |
| 20260508092036 | 46 | 203 | 1.7 | 5.2 | 0.00 | 0.00 | 0.00 | 75 | 1012.9 |
| 20260508091517 | 46 | 248 | 1.7 | 6.1 | 0.00 | 0.00 | 0.00 | 75 | 1012.9 |
| 20260508091016 | 46 | 270 | 2.6 | 8.7 | 0.00 | 0.00 | 0.00 | 75 | 1013.1 |
| 20260508090537 | 45 | 293 | 2.6 | 8.7 | 0.00 | 0.00 | 0.00 | 75 | 1012.9 |
| 20260508090016 | 45 | 248 | 3.5 | 10.4 | 0.00 | 0.00 | 0.00 | 76 | 1013.1 |
| 20260508085537 | 44 | 203 | 4.3 | 10.4 | 0.00 | 0.00 | 0.00 | 77 | 1013.0 |
| 20260508085036 | 44 | 180 | 2.6 | 7.8 | 0.00 | 0.00 | 0.00 | 77 | 1012.9 |
| 20260508084516 | 44 | 270 | 0.9 | 3.5 | 0.00 | 0.00 | 0.00 | 76 | 1013.2 |
| 20260508084017 | 44 | 293 | 0.9 | 4.3 | 0.00 | 0.00 | 0.00 | 76 | 1013.2 |
| 20260508083516 | 44 | 180 | 0.9 | 4.3 | 0.00 | 0.00 | 0.00 | 76 | 1013.0 |
| 20260508083037 | 44 | 180 | 1.7 | 5.2 | 0.00 | 0.00 | 0.00 | 76 | 1012.9 |
| 20260508082537 | 44 | 158 | 0.9 | 3.5 | 0.00 | 0.00 | 0.00 | 76 | 1013.0 |
| 20260508082016 | 44 | 180 | 2.6 | 7.8 | 0.00 | 0.00 | 0.00 | 76 | 1013.1 |
| 20260508081516 | 44 | 180 | 0.9 | 5.2 | 0.00 | 0.00 | 0.00 | 77 | 1013.1 |
| 20260508081016 | 44 | 203 | 0.9 | 2.6 | 0.00 | 0.00 | 0.00 | 76 | 1013.2 |
| 20260508080517 | 44 | 203 | 0.9 | 3.5 | 0.00 | 0.00 | 0.00 | 76 | 1013.2 |
| 20260508080017 | 44 | 158 | 0.9 | 5.2 | 0.00 | 0.00 | 0.00 | 76 | 1013.2 |
| 20260508075517 | 44 | 203 | 1.7 | 6.1 | 0.00 | 0.00 | 0.00 | 75 | 1013.2 |
| 20260508075016 | 45 | 225 | 0.9 | 4.3 | 0.00 | 0.00 | 0.00 | 75 | 1013.3 |
| 20260508074537 | 45 | 203 | 0.9 | 4.3 | 0.00 | 0.00 | 0.00 | 75 | 1013.4 |
| 20260508074017 | 45 | 248 | 1.7 | 5.2 | 0.00 | 0.00 | 0.00 | 74 | 1013.4 |
| 20260508073517 | 45 | 180 | 0.9 | 3.5 | 0.00 | 0.00 | 0.00 | 75 | 1013.4 |
| 20260508073017 | 45 | 203 | 1.7 | 5.2 | 0.00 | 0.00 | 0.00 | 74 | 1013.5 |
| 20260508072516 | 45 | 203 | 1.7 | 7.8 | 0.00 | 0.00 | 0.00 | 75 | 1013.5 |
| 20260508072056 | 45 | 113 | 0.9 | 3.5 | 0.00 | 0.00 | 0.00 | 75 | 1013.6 |
| 20260508071516 | 45 | 225 | 0.9 | 3.5 | 0.00 | 0.00 | 0.00 | 76 | 1013.5 |
| 20260508071016 | 45 | 0.0 | 0.9 | 0.00 | 0.00 | 0.00 | 76 | 1013.6 | |
| 20260508070516 | 45 | 0.0 | 2.6 | 0.00 | 0.00 | 0.00 | 76 | 1013.6 | |
| 20260508070016 | 45 | 248 | 0.9 | 4.3 | 0.00 | 0.00 | 0.00 | 76 | 1013.7 |
| 20260508065516 | 46 | 248 | 0.9 | 3.5 | 0.00 | 0.00 | 0.00 | 76 | 1013.7 |
| 20260508065017 | 46 | 248 | 1.7 | 9.6 | 0.00 | 0.00 | 0.00 | 76 | 1013.8 |
| 20260508064516 | 46 | 248 | 3.5 | 9.6 | 0.00 | 0.00 | 0.00 | 71 | 1013.8 |
| 20260508064016 | 46 | 225 | 2.6 | 7.8 | 0.00 | 0.00 | 0.00 | 71 | 1013.7 |
| 20260508063516 | 46 | 203 | 0.9 | 3.5 | 0.00 | 0.00 | 0.00 | 72 | 1013.7 |
| 20260508063016 | 46 | 180 | 1.7 | 7.8 | 0.00 | 0.00 | 0.00 | 70 | 1013.7 |
| 20260508062537 | 46 | 180 | 1.7 | 7.0 | 0.00 | 0.00 | 0.00 | 71 | 1013.6 |
| 20260508062016 | 46 | 180 | 0.9 | 3.5 | 0.00 | 0.00 | 0.00 | 71 | 1013.6 |
| 20260508061516 | 45 | 180 | 0.9 | 2.6 | 0.00 | 0.00 | 0.00 | 72 | 1013.7 |
| 20260508061037 | 46 | 203 | 1.7 | 4.3 | 0.00 | 0.00 | 0.00 | 71 | 1013.6 |
| 20260508060516 | 46 | 203 | 0.9 | 2.6 | 0.00 | 0.00 | 0.00 | 71 | 1013.6 |
| 20260508060036 | 45 | 203 | 2.6 | 6.1 | 0.00 | 0.00 | 0.00 | 71 | 1013.6 |
| 20260508055516 | 45 | 180 | 1.7 | 7.0 | 0.00 | 0.00 | 0.00 | 70 | 1013.5 |
| 20260508055016 | 45 | 180 | 0.9 | 3.5 | 0.00 | 0.00 | 0.00 | 71 | 1013.6 |
| 20260508054516 | 44 | 180 | 0.9 | 3.5 | 0.00 | 0.00 | 0.00 | 71 | 1013.5 |
| 20260508054057 | 44 | 0.0 | 1.7 | 0.00 | 0.00 | 0.00 | 73 | 1013.7 | |
| 20260508053516 | 44 | 225 | 0.9 | 3.5 | 0.00 | 0.00 | 0.00 | 72 | 1013.7 |
| 20260508053016 | 44 | 225 | 0.9 | 1.7 | 0.00 | 0.00 | 0.00 | 72 | 1013.7 |
| 20260508052516 | 44 | 225 | 0.9 | 1.7 | 0.00 | 0.00 | 0.00 | 72 | 1013.7 |
| 20260508052016 | 44 | 0.0 | 1.7 | 0.00 | 0.00 | 0.00 | 72 | 1013.9 | |
| 20260508051516 | 44 | 0.0 | 1.7 | 0.00 | 0.00 | 0.00 | 72 | 1013.9 | |
| 20260508051016 | 44 | 225 | 0.9 | 1.7 | 0.00 | 0.00 | 0.00 | 72 | 1013.9 |
| 20260508050516 | 44 | 0.0 | 1.7 | 0.00 | 0.00 | 0.00 | 72 | 1013.9 | |
| 20260508050016 | 44 | 0.0 | 0.0 | 0.00 | 0.00 | 0.00 | 70 | 1013.9 | |
| 20260508045516 | 44 | 0.0 | 0.0 | 0.00 | 0.00 | 0.00 | 70 | 1013.9 | |
| 20260508045016 | 45 | 0.0 | 0.9 | 0.00 | 0.00 | 0.00 | 69 | 1013.9 | |
| 20260508044536 | 45 | 0.0 | 0.9 | 0.00 | 0.00 | 0.00 | 69 | 1013.9 | |
| 20260508044016 | 45 | 0.0 | 0.9 | 0.00 | 0.00 | 0.00 | 69 | 1013.8 | |
| 20260508043516 | 45 | 0.0 | 0.9 | 0.00 | 0.00 | 0.00 | 68 | 1013.8 | |
| 20260508043016 | 46 | 0.0 | 0.9 | 0.00 | 0.00 | 0.00 | 70 | 1013.8 | |
| 20260508042516 | 46 | 0.0 | 1.7 | 0.00 | 0.00 | 0.00 | 68 | 1013.9 | |
| 20260508042016 | 46 | 225 | 0.9 | 1.7 | 0.00 | 0.00 | 0.00 | 68 | 1013.8 |
| 20260508041516 | 46 | 248 | 0.9 | 2.6 | 0.00 | 0.00 | 0.00 | 68 | 1013.9 |
| 20260508041016 | 46 | 0.0 | 1.7 | 0.00 | 0.00 | 0.00 | 68 | 1014.1 | |
| 20260508040516 | 46 | 0.0 | 1.7 | 0.00 | 0.00 | 0.00 | 68 | 1014.2 | |
| 20260508040016 | 46 | 0.0 | 1.7 | 0.00 | 0.00 | 0.00 | 67 | 1014.2 | |
| 20260508035516 | 46 | 248 | 0.9 | 2.6 | 0.00 | 0.00 | 0.00 | 66 | 1014.3 |
| 20260508035016 | 47 | 248 | 0.9 | 2.6 | 0.00 | 0.00 | 0.00 | 66 | 1014.3 |
| 20260508034516 | 47 | 248 | 0.9 | 2.6 | 0.00 | 0.00 | 0.00 | 65 | 1014.2 |
| 20260508034016 | 47 | 270 | 1.7 | 3.5 | 0.00 | 0.00 | 0.00 | 63 | 1014.3 |
| 20260508033516 | 47 | 293 | 1.7 | 6.1 | 0.00 | 0.00 | 0.00 | 63 | 1014.3 |
| 20260508033016 | 47 | 270 | 1.7 | 3.5 | 0.00 | 0.00 | 0.00 | 65 | 1014.3 |
| 20260508032516 | 47 | 270 | 4.3 | 8.7 | 0.00 | 0.00 | 0.00 | 64 | 1014.4 |
| 20260508032016 | 46 | 248 | 5.2 | 12.2 | 0.00 | 0.00 | 0.00 | 69 | 1014.4 |
| 20260508031516 | 45 | 225 | 1.7 | 3.5 | 0.00 | 0.00 | 0.00 | 69 | 1014.5 |
| 20260508031016 | 45 | 293 | 0.9 | 2.6 | 0.00 | 0.00 | 0.00 | 69 | 1014.4 |
| 20260508030516 | 45 | 293 | 0.9 | 2.6 | 0.00 | 0.00 | 0.00 | 69 | 1014.3 |
| 20260508030037 | 44 | 293 | 0.9 | 1.7 | 0.00 | 0.00 | 0.00 | 69 | 1014.3 |
| 20260508025516 | 44 | 0.0 | 0.9 | 0.00 | 0.00 | 0.00 | 69 | 1014.2 | |
| 20260508025016 | 44 | 0.0 | 1.7 | 0.00 | 0.00 | 0.00 | 70 | 1014.2 | |
| 20260508024516 | 43 | 293 | 1.7 | 3.5 | 0.00 | 0.00 | 0.00 | 70 | 1014.1 |
| 20260508024016 | 43 | 0.0 | 1.7 | 0.00 | 0.00 | 0.00 | 69 | 1014.0 | |
| 20260508023516 | 43 | 293 | 0.9 | 1.7 | 0.00 | 0.00 | 0.00 | 67 | 1013.9 |
| 20260508023016 | 43 | 0.0 | 0.9 | 0.00 | 0.00 | 0.00 | 70 | 1013.9 | |
| 20260508022516 | 43 | 0.0 | 1.7 | 0.00 | 0.00 | 0.00 | 73 | 1013.8 | |
| 20260508022036 | 42 | 0.0 | 1.7 | 0.00 | 0.00 | 0.00 | 71 | 1013.7 | |
| 20260508021517 | 42 | 0.0 | 1.7 | 0.00 | 0.00 | 0.00 | 72 | 1013.7 | |
| 20260508021016 | 42 | 0.0 | 0.0 | 0.00 | 0.00 | 0.00 | 78 | 1013.6 | |
| 20260508020516 | 43 | 0.0 | 0.0 | 0.00 | 0.00 | 0.00 | 79 | 1013.6 | |
| 20260508020016 | 43 | 0.0 | 0.0 | 0.00 | 0.00 | 0.00 | 79 | 1013.6 | |
| 20260508015516 | 43 | 0.0 | 0.0 | 0.00 | 0.00 | 0.00 | 77 | 1013.6 | |
| 20260508015016 | 43 | 0.0 | 0.0 | 0.00 | 0.00 | 0.00 | 77 | 1013.4 | |
| 20260508014516 | 43 | 0.0 | 0.0 | 0.00 | 0.00 | 0.00 | 76 | 1013.4 | |
| 20260508014016 | 44 | 0.0 | 0.0 | 0.00 | 0.00 | 0.00 | 70 | 1013.3 | |
| 20260508013536 | 44 | 0.0 | 0.0 | 0.00 | 0.00 | 0.00 | 70 | 1013.3 | |
| 20260508013037 | 44 | 0.0 | 0.0 | 0.00 | 0.00 | 0.00 | 74 | 1013.3 | |
| 20260508012516 | 44 | 0.0 | 1.7 | 0.00 | 0.00 | 0.00 | 71 | 1013.2 | |
| 20260508012016 | 44 | 0.0 | 1.7 | 0.00 | 0.00 | 0.00 | 67 | 1013.1 | |
| 20260508011516 | 45 | 0.0 | 0.0 | 0.00 | 0.00 | 0.00 | 67 | 1013.2 | |
| 20260508011016 | 45 | 0.0 | 0.0 | 0.00 | 0.00 | 0.00 | 63 | 1013.2 | |
| 20260508010516 | 46 | 0.0 | 0.0 | 0.00 | 0.00 | 0.00 | 61 | 1013.1 | |
| 20260508010016 | 46 | 0.0 | 0.9 | 0.00 | 0.00 | 0.00 | 59 | 1013.1 | |
| 20260508005516 | 46 | 0.0 | 1.7 | 0.00 | 0.00 | 0.00 | 57 | 1013.0 | |
| 20260508005016 | 47 | 0.0 | 0.0 | 0.00 | 0.00 | 0.00 | 55 | 1013.1 | |
| 20260508004516 | 48 | 0.0 | 0.0 | 0.00 | 0.00 | 0.00 | 55 | 1013.1 | |
| 20260508004016 | 48 | 0.0 | 0.0 | 0.00 | 0.00 | 0.00 | 55 | 1013.1 | |
| 20260508003516 | 49 | 0.0 | 1.7 | 0.00 | 0.00 | 0.00 | 52 | 1013.2 | |
| 20260508003016 | 49 | 293 | 0.9 | 2.6 | 0.00 | 0.00 | 0.00 | 50 | 1013.1 |
| 20260508002516 | 50 | 0.0 | 1.7 | 0.00 | 0.00 | 0.00 | 49 | 1013.0 | |
| 20260508002016 | 50 | 293 | 0.9 | 2.6 | 0.00 | 0.00 | 0.00 | 49 | 1013.0 |
| 20260508001536 | 50 | 270 | 0.9 | 3.5 | 0.00 | 0.00 | 0.00 | 48 | 1012.9 |
| 20260508001016 | 51 | 270 | 1.7 | 5.2 | 0.00 | 0.00 | 0.00 | 46 | 1012.9 |
| 20260508000516 | 51 | 338 | 2.6 | 5.2 | 0.00 | 0.00 | 0.00 | 45 | 1012.8 |
| 20260508000016 | 51 | 248 | 4.3 | 8.7 | 0.00 | 0.00 | 0.00 | 45 | 1012.8 |
| 20260507235516 | 52 | 293 | 3.5 | 7.0 | 0.00 | 0.00 | 0.00 | 43 | 1012.7 |
| 20260507235016 | 52 | 270 | 4.3 | 9.6 | 0.00 | 0.00 | 0.00 | 44 | 1012.6 |
| 20260507234516 | 52 | 270 | 3.5 | 7.8 | 0.00 | 0.00 | 0.00 | 44 | 1012.6 |
| 20260507234016 | 52 | 315 | 2.6 | 6.1 | 0.00 | 0.00 | 0.00 | 46 | 1012.6 |
| 20260507233536 | 53 | 315 | 3.5 | 7.8 | 0.00 | 0.00 | 0.00 | 44 | 1012.6 |
| 20260507233016 | 53 | 293 | 4.3 | 11.3 | 0.00 | 0.00 | 0.00 | 43 | 1012.6 |
| 20260507232516 | 53 | 293 | 4.3 | 13.9 | 0.00 | 0.00 | 0.00 | 43 | 1012.6 |
| 20260507232036 | 54 | 270 | 2.6 | 6.1 | 0.00 | 0.00 | 0.00 | 45 | 1012.5 |
| 20260507231516 | 54 | 338 | 1.7 | 2.6 | 0.00 | 0.00 | 0.00 | 45 | 1012.5 |
| 20260507231036 | 53 | 315 | 3.5 | 7.8 | 0.00 | 0.00 | 0.00 | 46 | 1012.4 |
| 20260507230516 | 53 | 338 | 3.5 | 7.8 | 0.00 | 0.00 | 0.00 | 45 | 1012.5 |
| 20260507230016 | 53 | 315 | 3.5 | 7.0 | 0.00 | 0.00 | 0.00 | 48 | 1012.5 |
| 20260507225536 | 52 | 315 | 2.6 | 7.0 | 0.00 | 0.00 | 0.00 | 47 | 1012.6 |
| 20260507225015 | 53 | 315 | 3.5 | 7.8 | 0.00 | 0.00 | 0.00 | 46 | 1012.6 |
| 20260507224516 | 54 | 315 | 4.3 | 8.7 | 0.00 | 0.00 | 0.00 | 44 | 1012.7 |
| 20260507224016 | 55 | 315 | 4.3 | 7.8 | 0.00 | 0.00 | 0.00 | 44 | 1012.7 |
| 20260507223516 | 55 | 315 | 2.6 | 5.2 | 0.00 | 0.00 | 0.00 | 43 | 1012.6 |
| 20260507223036 | 55 | 293 | 4.3 | 9.6 | 0.00 | 0.00 | 0.00 | 43 | 1012.6 |
| 20260507222516 | 55 | 315 | 3.5 | 8.7 | 0.00 | 0.00 | 0.00 | 46 | 1012.6 |
| 20260507222016 | 55 | 315 | 5.2 | 10.4 | 0.00 | 0.00 | 0.00 | 46 | 1012.6 |
| 20260507221516 | 54 | 315 | 4.3 | 8.7 | 0.00 | 0.00 | 0.00 | 44 | 1012.6 |
| 20260507221015 | 53 | 315 | 4.3 | 8.7 | 0.00 | 0.00 | 0.00 | 47 | 1012.5 |
| 20260507220536 | 53 | 315 | 6.1 | 10.4 | 0.00 | 0.00 | 0.00 | 44 | 1012.5 |
| 20260507220016 | 53 | 315 | 5.2 | 12.2 | 0.00 | 0.00 | 0.00 | 45 | 1012.4 |
| 20260507215516 | 54 | 293 | 5.2 | 13.9 | 0.00 | 0.00 | 0.00 | 44 | 1012.5 |
| 20260507215016 | 55 | 270 | 7.0 | 13.0 | 0.00 | 0.00 | 0.00 | 40 | 1012.5 |
| 20260507214516 | 55 | 293 | 5.2 | 11.3 | 0.00 | 0.00 | 0.00 | 41 | 1012.5 |
| 20260507214036 | 55 | 270 | 6.1 | 13.9 | 0.00 | 0.00 | 0.00 | 42 | 1012.4 |
| 20260507213536 | 54 | 270 | 7.0 | 13.9 | 0.00 | 0.00 | 0.00 | 43 | 1012.3 |
| 20260507213016 | 55 | 270 | 6.1 | 12.2 | 0.00 | 0.00 | 0.00 | 45 | 1012.2 |
| 20260507212516 | 54 | 315 | 7.0 | 13.0 | 0.00 | 0.00 | 0.00 | 43 | 1012.2 |
| 20260507212016 | 54 | 315 | 7.8 | 13.0 | 0.00 | 0.00 | 0.00 | 45 | 1012.2 |
| 20260507211515 | 54 | 270 | 8.7 | 14.8 | 0.00 | 0.00 | 0.00 | 42 | 1012.2 |
| 20260507211016 | 55 | 315 | 7.8 | 16.5 | 0.00 | 0.00 | 0.00 | 40 | 1012.2 |
| 20260507210536 | 55 | 248 | 3.5 | 9.6 | 0.00 | 0.00 | 0.00 | 47 | 1012.1 |
| 20260507210015 | 55 | 270 | 6.1 | 12.2 | 0.00 | 0.00 | 0.00 | 45 | 1012.1 |
| 20260507205556 | 54 | 270 | 6.1 | 12.2 | 0.00 | 0.00 | 0.00 | 48 | 1012.1 |
| 20260507205015 | 54 | 293 | 7.8 | 13.0 | 0.00 | 0.00 | 0.00 | 45 | 1012.0 |
| 20260507204516 | 54 | 270 | 5.2 | 12.2 | 0.00 | 0.00 | 0.00 | 47 | 1012.1 |
| 20260507204036 | 54 | 293 | 5.2 | 12.2 | 0.00 | 0.00 | 0.00 | 48 | 1012.1 |
| 20260507203536 | 54 | 293 | 7.0 | 20.0 | 0.00 | 0.00 | 0.00 | 45 | 1011.9 |
| 20260507203016 | 55 | 270 | 6.1 | 20.0 | 0.00 | 0.00 | 0.00 | 45 | 1012.0 |
| 20260507202516 | 55 | 270 | 4.3 | 12.2 | 0.00 | 0.00 | 0.00 | 47 | 1011.9 |
| 20260507202016 | 55 | 270 | 4.3 | 12.2 | 0.00 | 0.00 | 0.00 | 44 | 1011.9 |
| 20260507201515 | 55 | 270 | 7.8 | 16.5 | 0.00 | 0.00 | 0.00 | 46 | 1012.1 |
| 20260507201015 | 54 | 270 | 5.2 | 10.4 | 0.00 | 0.00 | 0.00 | 48 | 1012.1 |
| 20260507200515 | 54 | 270 | 7.0 | 13.9 | 0.00 | 0.00 | 0.00 | 47 | 1012.0 |
| 20260507200016 | 54 | 293 | 6.1 | 15.6 | 0.00 | 0.00 | 0.00 | 47 | 1011.9 |
| 20260507195516 | 54 | 270 | 7.0 | 11.3 | 0.00 | 0.00 | 0.00 | 45 | 1012.0 |
| 20260507195015 | 54 | 270 | 6.1 | 9.6 | 0.00 | 0.00 | 0.00 | 46 | 1011.9 |
| 20260507194516 | 55 | 248 | 4.3 | 9.6 | 0.00 | 0.00 | 0.00 | 48 | 1012.1 |
| 20260507194015 | 55 | 248 | 5.2 | 12.2 | 0.00 | 0.00 | 0.00 | 47 | 1012.2 |
| 20260507193515 | 56 | 270 | 4.3 | 11.3 | 0.00 | 0.00 | 0.00 | 47 | 1012.1 |
| 20260507193015 | 55 | 248 | 3.5 | 7.8 | 0.00 | 0.00 | 0.00 | 49 | 1012.3 |
| 20260507192516 | 54 | 270 | 7.0 | 12.2 | 0.00 | 0.00 | 0.00 | 45 | 1012.3 |
| 20260507192015 | 55 | 248 | 7.0 | 13.9 | 0.00 | 0.00 | 0.00 | 45 | 1012.4 |
| 20260507191535 | 56 | 293 | 5.2 | 11.3 | 0.00 | 0.00 | 0.00 | 49 | 1012.3 |
| 20260507191016 | 56 | 203 | 3.5 | 12.2 | 0.00 | 0.00 | 0.00 | 46 | 1012.4 |
| 20260507190516 | 56 | 293 | 5.2 | 9.6 | 0.00 | 0.00 | 0.00 | 50 | 1012.4 |
| 20260507190015 | 56 | 293 | 5.2 | 10.4 | 0.00 | 0.00 | 0.00 | 50 | 1012.5 |
| 20260507185515 | 56 | 270 | 4.3 | 11.3 | 0.00 | 0.00 | 0.00 | 49 | 1012.5 |
| 20260507185016 | 55 | 293 | 4.3 | 10.4 | 0.00 | 0.00 | 0.00 | 48 | 1012.5 |
| 20260507184516 | 55 | 293 | 4.3 | 11.3 | 0.00 | 0.00 | 0.00 | 48 | 1012.5 |
| 20260507184015 | 54 | 293 | 6.1 | 13.9 | 0.00 | 0.00 | 0.00 | 47 | 1012.6 |
| 20260507183515 | 55 | 270 | 6.1 | 13.9 | 0.00 | 0.00 | 0.00 | 46 | 1012.6 |
| 20260507183015 | 54 | 293 | 4.3 | 12.2 | 0.00 | 0.00 | 0.00 | 46 | 1012.6 |
| 20260507182515 | 54 | 248 | 5.2 | 12.2 | 0.00 | 0.00 | 0.00 | 52 | 1012.7 |
| 20260507182038 | 54 | 293 | 4.3 | 10.4 | 0.00 | 0.00 | 0.00 | 47 | 1012.7 |
| 20260507181517 | 54 | 270 | 5.2 | 9.6 | 0.00 | 0.00 | 0.00 | 48 | 1012.7 |
| 20260507181017 | 55 | 248 | 5.2 | 12.2 | 0.00 | 0.00 | 0.00 | 46 | 1012.7 |
| 20260507180518 | 55 | 225 | 2.6 | 9.6 | 0.00 | 0.00 | 0.00 | 50 | 1012.6 |
| 20260507180017 | 55 | 203 | 4.3 | 13.0 | 0.00 | 0.00 | 0.00 | 52 | 1012.7 |
| 20260507175517 | 55 | 270 | 4.3 | 10.4 | 0.00 | 0.00 | 0.00 | 52 | 1012.7 |
| 20260507175017 | 53 | 293 | 7.0 | 12.2 | 0.00 | 0.00 | 0.00 | 50 | 1012.6 |
| 20260507174618 | 53 | 270 | 7.8 | 12.2 | 0.00 | 0.00 | 0.00 | 48 | 1012.8 |
| 20260507174018 | 54 | 270 | 6.1 | 13.0 | 0.00 | 0.00 | 0.00 | 49 | 1012.7 |
| 20260507173517 | 54 | 270 | 3.5 | 10.4 | 0.00 | 0.00 | 0.00 | 50 | 1012.7 |
| 20260507173016 | 55 | 203 | 2.6 | 7.8 | 0.00 | 0.00 | 0.00 | 50 | 1012.7 |
| 20260507172517 | 54 | 270 | 3.5 | 7.8 | 0.00 | 0.00 | 0.00 | 49 | 1012.8 |
| 20260507172022 | 53 | 225 | 2.6 | 9.6 | 0.00 | 0.00 | 0.00 | 51 | 1012.8 |
| 20260507171537 | 53 | 293 | 3.5 | 8.7 | 0.00 | 0.00 | 0.00 | 48 | 1012.8 |
| 20260507171017 | 54 | 315 | 4.3 | 7.8 | 0.00 | 0.00 | 0.00 | 45 | 1013.0 |
| 20260507170517 | 54 | 293 | 5.2 | 9.6 | 0.00 | 0.00 | 0.00 | 47 | 1013.0 |
| 20260507170037 | 53 | 225 | 4.3 | 11.3 | 0.00 | 0.00 | 0.00 | 50 | 1012.9 |
| 20260507165557 | 53 | 315 | 6.1 | 12.2 | 0.00 | 0.00 | 0.00 | 44 | 1012.9 |
| 20260507165017 | 55 | 270 | 3.5 | 9.6 | 0.00 | 0.00 | 0.00 | 48 | 1013.0 |
| 20260507164517 | 55 | 293 | 2.6 | 6.1 | 0.00 | 0.00 | 0.00 | 47 | 1013.0 |
| 20260507164017 | 55 | 293 | 4.3 | 8.7 | 0.00 | 0.00 | 0.00 | 44 | 1013.0 |
| 20260507163557 | 55 | 248 | 4.3 | 12.2 | 0.00 | 0.00 | 0.00 | 49 | 1013.0 |
| 20260507163017 | 55 | 270 | 3.5 | 7.8 | 0.00 | 0.00 | 0.00 | 52 | 1013.1 |
| 20260507162517 | 55 | 180 | 2.6 | 8.7 | 0.00 | 0.00 | 0.00 | 49 | 1013.1 |
| 20260507162037 | 54 | 293 | 5.2 | 12.2 | 0.00 | 0.00 | 0.00 | 46 | 1013.1 |
| 20260507161517 | 53 | 270 | 7.0 | 12.2 | 0.00 | 0.00 | 0.00 | 46 | 1013.0 |
| 20260507161017 | 54 | 270 | 5.2 | 9.6 | 0.00 | 0.00 | 0.00 | 48 | 1013.1 |
| 20260507160517 | 54 | 248 | 3.5 | 8.7 | 0.00 | 0.00 | 0.00 | 48 | 1013.1 |
| 20260507160037 | 54 | 315 | 2.6 | 8.7 | 0.00 | 0.00 | 0.00 | 55 | 1013.1 |
| 20260507155537 | 52 | 315 | 3.5 | 8.7 | 0.00 | 0.00 | 0.00 | 52 | 1013.0 |
| 20260507155017 | 53 | 270 | 4.3 | 10.4 | 0.00 | 0.00 | 0.00 | 50 | 1013.0 |
| 20260507154517 | 53 | 315 | 5.2 | 10.4 | 0.00 | 0.00 | 0.00 | 52 | 1012.9 |
| 20260507154017 | 52 | 293 | 7.0 | 11.3 | 0.00 | 0.00 | 0.00 | 49 | 1013.1 |
| 20260507153517 | 53 | 270 | 5.2 | 11.3 | 0.00 | 0.00 | 0.00 | 50 | 1013.0 |
| 20260507153037 | 53 | 270 | 3.5 | 9.6 | 0.00 | 0.01 | 0.00 | 52 | 1013.0 |
| 20260507152517 | 53 | 270 | 3.5 | 9.6 | 0.00 | 0.01 | 0.00 | 49 | 1013.0 |
| 20260507152017 | 53 | 270 | 5.2 | 9.6 | 0.00 | 0.01 | 0.00 | 50 | 1013.0 |
| 20260507151517 | 54 | 248 | 4.3 | 11.3 | 0.00 | 0.01 | 0.00 | 50 | 1013.2 |
| 20260507151037 | 54 | 270 | 4.3 | 10.4 | 0.00 | 0.01 | 0.00 | 53 | 1013.3 |
| 20260507150517 | 54 | 270 | 3.5 | 7.8 | 0.00 | 0.01 | 0.00 | 55 | 1013.3 |
| 20260507150017 | 53 | 270 | 2.6 | 7.0 | 0.00 | 0.01 | 0.00 | 53 | 1013.2 |
| 20260507145517 | 53 | 293 | 2.6 | 6.1 | 0.00 | 0.01 | 0.00 | 52 | 1013.2 |
| 20260507145017 | 53 | 270 | 2.6 | 6.1 | 0.00 | 0.01 | 0.00 | 56 | 1013.3 |
| 20260507144517 | 53 | 248 | 2.6 | 7.0 | 0.00 | 0.01 | 0.00 | 57 | 1013.3 |
| 20260507144017 | 53 | 225 | 1.7 | 3.5 | 0.00 | 0.01 | 0.00 | 56 | 1013.3 |
| 20260507143517 | 53 | 203 | 2.6 | 6.1 | 0.00 | 0.01 | 0.00 | 55 | 1013.3 |
| 20260507143017 | 52 | 270 | 1.7 | 6.1 | 0.00 | 0.01 | 0.00 | 60 | 1013.2 |
| 20260507142517 | 52 | 270 | 2.6 | 7.8 | 0.00 | 0.01 | 0.00 | 54 | 1013.3 |
| 20260507142017 | 52 | 270 | 2.6 | 9.6 | 0.00 | 0.01 | 0.00 | 61 | 1013.3 |
| 20260507141517 | 52 | 248 | 1.7 | 6.1 | 0.00 | 0.01 | 0.00 | 63 | 1013.5 |
| 20260507141017 | 51 | 203 | 1.7 | 6.1 | 0.00 | 0.01 | 0.00 | 64 | 1013.4 |
| 20260507140517 | 51 | 270 | 2.6 | 7.0 | 0.00 | 0.01 | 0.00 | 64 | 1013.5 |
| 20260507140017 | 50 | 203 | 3.5 | 8.7 | 0.00 | 0.01 | 0.00 | 63 | 1013.6 |
| 20260507135517 | 50 | 270 | 3.5 | 6.1 | 0.00 | 0.01 | 0.00 | 64 | 1013.6 |
| 20260507135017 | 50 | 203 | 2.6 | 4.3 | 0.00 | 0.01 | 0.00 | 67 | 1013.6 |
| 20260507134517 | 49 | 293 | 2.6 | 7.0 | 0.00 | 0.01 | 0.00 | 66 | 1013.7 |
| 20260507134017 | 49 | 225 | 3.5 | 9.6 | 0.00 | 0.01 | 0.00 | 70 | 1013.7 |
| 20260507133517 | 48 | 248 | 1.7 | 6.1 | 0.00 | 0.01 | 0.00 | 69 | 1013.6 |
| 20260507133017 | 48 | 293 | 3.5 | 7.0 | 0.00 | 0.01 | 0.00 | 68 | 1013.7 |
| 20260507132517 | 48 | 293 | 1.7 | 7.0 | 0.00 | 0.01 | 0.00 | 72 | 1013.7 |
| 20260507132017 | 47 | 248 | 2.6 | 7.0 | 0.00 | 0.01 | 0.00 | 70 | 1013.7 |
| 20260507131517 | 47 | 293 | 0.9 | 3.5 | 0.00 | 0.01 | 0.00 | 71 | 1013.8 |
| 20260507131017 | 47 | 225 | 1.7 | 3.5 | 0.00 | 0.01 | 0.00 | 75 | 1013.6 |
| 20260507130537 | 46 | 225 | 0.9 | 3.5 | 0.00 | 0.01 | 0.00 | 74 | 1013.6 |
| 20260507130017 | 46 | 225 | 0.9 | 3.5 | 0.00 | 0.01 | 0.00 | 76 | 1013.5 |
| 20260507125517 | 45 | 225 | 0.9 | 3.5 | 0.00 | 0.01 | 0.00 | 76 | 1013.6 |
| 20260507125017 | 45 | 225 | 0.9 | 3.5 | 0.00 | 0.01 | 0.00 | 76 | 1013.6 |
| 20260507124517 | 45 | 203 | 0.9 | 2.6 | 0.00 | 0.01 | 0.00 | 76 | 1013.6 |
| 20260507124057 | 45 | 203 | 1.7 | 4.3 | 0.00 | 0.01 | 0.00 | 74 | 1013.6 |
| 20260507123516 | 46 | 270 | 1.7 | 6.1 | 0.00 | 0.01 | 0.00 | 75 | 1013.6 |
| 20260507123017 | 45 | 248 | 0.9 | 2.6 | 0.00 | 0.01 | 0.00 | 76 | 1013.6 |
| 20260507122517 | 45 | 203 | 0.9 | 6.1 | 0.00 | 0.01 | 0.00 | 76 | 1013.5 |
| 20260507122016 | 45 | 203 | 0.9 | 2.6 | 0.00 | 0.01 | 0.00 | 76 | 1013.5 |
| 20260507121557 | 45 | 203 | 0.9 | 2.6 | 0.00 | 0.01 | 0.00 | 74 | 1013.5 |
| 20260507121017 | 45 | 135 | 0.9 | 2.6 | 0.00 | 0.01 | 0.00 | 77 | 1013.5 |
| 20260507120517 | 44 | 180 | 0.9 | 2.6 | 0.00 | 0.01 | 0.00 | 75 | 1013.5 |
| 20260507120017 | 44 | 158 | 0.9 | 4.3 | 0.00 | 0.01 | 0.00 | 75 | 1013.5 |
| 20260507115517 | 44 | 158 | 0.9 | 3.5 | 0.00 | 0.01 | 0.00 | 77 | 1013.4 |
| 20260507115017 | 44 | 158 | 1.7 | 5.2 | 0.00 | 0.01 | 0.00 | 77 | 1013.4 |
| 20260507114517 | 43 | 158 | 1.7 | 5.2 | 0.00 | 0.01 | 0.00 | 77 | 1013.5 |
| 20260507114017 | 43 | 158 | 1.7 | 4.3 | 0.00 | 0.01 | 0.00 | 78 | 1013.5 |
| 20260507113557 | 42 | 135 | 1.7 | 4.3 | 0.00 | 0.01 | 0.00 | 79 | 1013.4 |
| 20260507113017 | 42 | 113 | 1.7 | 2.6 | 0.00 | 0.01 | 0.00 | 81 | 1013.4 |
| 20260507112517 | 41 | 113 | 0.9 | 2.6 | 0.00 | 0.01 | 0.00 | 82 | 1013.3 |
| 20260507112017 | 40 | 113 | 0.9 | 2.6 | 0.00 | 0.01 | 0.00 | 84 | 1013.1 |
| 20260507111517 | 39 | 113 | 0.9 | 1.7 | 0.00 | 0.01 | 0.00 | 87 | 1013.1 |
| 20260507111057 | 38 | 113 | 1.7 | 3.5 | 0.00 | 0.01 | 0.00 | 87 | 1013.1 |
| 20260507110517 | 37 | 68 | 0.9 | 1.7 | 0.00 | 0.01 | 0.00 | 89 | 1013.0 |
| 20260507110017 | 37 | 0.0 | 1.7 | 0.00 | 0.01 | 0.00 | 89 | 1013.0 | |
| 20260507105517 | 37 | 0.0 | 0.9 | 0.00 | 0.01 | 0.00 | 89 | 1013.0 | |
| 20260507105036 | 37 | 0.0 | 1.7 | 0.00 | 0.01 | 0.00 | 89 | 1012.9 | |
| 20260507104537 | 36 | 0.0 | 0.0 | 0.00 | 0.01 | 0.00 | 89 | 1012.9 | |
| 20260507104037 | 36 | 0.0 | 0.0 | 0.00 | 0.01 | 0.00 | 90 | 1012.9 | |
| 20260507103517 | 36 | 0.0 | 0.0 | 0.00 | 0.01 | 0.00 | 90 | 1012.9 | |
| 20260507103016 | 36 | 0.0 | 0.0 | 0.00 | 0.01 | 0.00 | 90 | 1012.8 | |
| 20260507102517 | 36 | 0.0 | 0.9 | 0.00 | 0.01 | 0.00 | 90 | 1012.8 | |
| 20260507102016 | 36 | 0.0 | 0.0 | 0.00 | 0.01 | 0.00 | 89 | 1012.9 | |
| 20260507101537 | 36 | 0.0 | 0.0 | 0.00 | 0.01 | 0.00 | 90 | 1012.9 | |
| 20260507101017 | 36 | 0.0 | 0.0 | 0.00 | 0.01 | 0.00 | 90 | 1012.9 | |
| 20260507100516 | 36 | 0.0 | 0.0 | 0.00 | 0.01 | 0.00 | 89 | 1012.9 | |
| 20260507100017 | 36 | 0.0 | 0.0 | 0.00 | 0.01 | 0.00 | 89 | 1012.8 |